Regional Weather Roundup
Issued by NWS Eureka, CA

Current Version | Previous Version | Text Only | Print | Product List | Glossary On
Versions: 1 2 3 4 5 6 7 8 9 10 11 12 13 14 15 16 17 18 19 20 21 22 23 24 25 26 27 28 29 30 31 32 33 34 35 36 37 38 39 40 41 42 43 44 45 46 47 48 49 50
000 ASUS46 KEKA 210214 RWREKA Eureka Area Weather Roundup National Weather Service Eureka CA 700 PM PDT TUE APR 20 2021 Note: "fair" indicates few or no clouds below 12,000 feet with no significant weather and/or obstructions to visibility. Southwest Oregon... CITY SKY/WX TMP DP RH WIND PRES REMARKS MEDFORD CLEAR 70 34 26 NW14 29.92S KLAMATH FALLS CLEAR 60 19 20 NE16 29.94S NORTH BEND CLOUDY 51 47 86 N18G28 30.10F ROSEBURG SUNNY 71 19 14 N15G21 29.98S SEXTON SUMMIT SUNNY 53 30 41 N8 29.99F BROOKINGS SUNNY 68 45 43 N13G18 29.92S Northwest California... CITY SKY/WX TMP DP RH WIND PRES REMARKS CRESCENT CITY CLOUDY 49 45 86 N15G30 29.93S FOG MCKINLEYVILLE PTSUNNY 49 45 86 NW9 29.97S FOG EUREKA PTSUNNY 49 32 52 NW10 29.99S FORTUNA CLOUDY 48 46 93 NW14 29.99S WEAVERVILLE NOT AVBL TRINITY CENTER NOT AVBL UKIAH PTCLDY 66 44 45 N9 29.82R North & Central California... CITY SKY/WX TMP DP RH WIND PRES REMARKS YREKA CLEAR 63 39 41 N10 29.94F MOUNT SHASTA MOCLDY 56 37 49 VRB5 29.91F REDDING CLOUDY 65 44 46 NE12 29.82S RED BLUFF MOCLDY 69 40 34 N16G25 29.80S CHICO RAIN 70 46 43 NE5 29.75R YUBA CITY PTCLDY 72 44 36 SW8G21 29.73R SACRAMENTO CLEAR 64 45 49 S12G20 29.76R SANTA ROSA PTCLDY 70 44 39 NE9 29.77R NAPA PTCLDY 60 48 64 SW12 29.80R TRAVIS AFB NOT AVBL SAN FRANCISCO MOCLDY 54 46 74 W24G32 29.84R OAKLAND PTCLDY 56 47 71 W22 29.84F STOCKTON NOT AVBL SALINAS CLOUDY 54 46 74 W16 29.92F MONTEREY LGT RAIN 54 49 83 W10 29.94F $$

USA.gov is the U.S. government's official web portal to all federal, state and local government web resources and services.